USA 169 (MILSTAR-2 4)

Last updated on Wed Sep 17 2025 00:02:46 GMT+0000 (Coordinated Universal Time)

1 27711U 03012A 25259.55773564 -.00000211 00000+0 00000+0 0 9992 2 27711 11.9319 31.9922 0095021 7.3792 309.3105 1.00269861 30204
UTC large
Height (km)
Speed (km/s)
/
Latitude / Longitude
Inclination (degrees)
Orbital Period (minutes)
Azimuth
Elevation
Range (km)
Doppler Factor

Next 0 passes for location: London (51.5072 / 0.1276)

Sorry there are no passes over London.